Location: Unspecified
(37.0000°N, 0.0000°E)
Time: 03:39:50
(UTC+00:00)

Burner II No. 7 - Visible Passes

Search period start: 04 April 2026 00:00
Search period end: 14 April 2026 00:00
Orbit: 755 x 813 km, 98.3° (Epoch: 29 March)

Date Brightness Start Highest point End Pass type
(mag) Time Alt. Az. Time Alt. Az. Time Alt. Az.
4 Apr 7.9 05:02:36 10° SE 05:07:21 38° ENE 05:12:11 10° N visible
4 Apr 7.1 18:55:35 10° N 19:00:46 54° WNW 19:05:53 10° SSW visible
5 Apr 9.0 04:32:45 10° ESE 04:36:26 20° ENE 04:40:09 10° NNE visible
5 Apr 9.4 20:06:01 10° NW 20:08:17 13° WNW 20:10:32 10° W visible
6 Apr 8.6 19:33:15 10° NNW 19:37:28 25° WNW 19:41:39 10° WSW visible
7 Apr 7.6 05:08:11 10° SE 05:13:05 43° ENE 05:18:03 10° N visible
7 Apr 7.4 19:01:26 10° N 19:06:31 47° WNW 19:11:30 10° SW visible
8 Apr 8.9 04:38:08 10° ESE 04:42:08 23° ENE 04:46:09 10° NNE visible
8 Apr 9.6 20:12:31 10° NW 20:13:57 11° WNW 20:15:23 10° WNW visible
9 Apr 9.6 04:09:36 10° E 04:11:20 12° ENE 04:13:05 10° NE visible
9 Apr 8.8 19:39:13 10° NNW 19:43:10 22° WNW 19:47:04 10° WSW visible
10 Apr 7.6 19:07:17 10° N 19:12:14 41° WNW 19:17:06 10° SW visible
11 Apr 8.7 04:43:34 10° ESE 04:47:49 26° ENE 04:52:07 10° NNE visible
12 Apr 9.5 04:14:32 10° E 04:17:00 13° ENE 04:19:28 10° NE visible
12 Apr 9.0 19:45:14 10° NNW 19:48:51 19° WNW 19:52:26 10° WSW visible
13 Apr 7.9 19:13:09 10° N 19:17:57 36° WNW 19:22:39 10° SW visible
